Tracking 30922 objects as of 2-Jul-2025
HD Live streaming from Space Station
objects crossing your sky now

ONEWEB-0561

Track ONEWEB-0561 now!
10-day predictions
ONEWEB-0561 is classified as:


NORAD ID: 56710
Int'l Code: 2023-068A
Perigee: 1,187.6 km
Apogee: 1,190.2 km
Inclination: 87.9 °
Period: 109.0 minutes
Semi major axis: 7559 km
RCS: Unknown
Launch date: May 20, 2023
Source: United Kingdom (UK)
Launch site: AIR FORCE WESTERN TEST RANGE (AFWTR)
Your satellite tracking list
Your tracking list is empty




NASA's NSSDC Master Catalog

Two Line Element Set (TLE):
1 56710U 23068A   25182.51958192  .00000040  00000-0  67120-4 0  9990
2 56710  87.9255 344.3084 0001745 111.5678 248.5641 13.20773634103212
Source of the keplerian elements: AFSPC